Time,TemperatureF,DewpointF,PressureIn,WindDirection,WindDirectionDegrees,WindSpeedMPH,WindSpeedGustMPH,Humidity,HourlyPrecipIn,Conditions,Clouds,dailyrainin,SoftwareType,DateUTC
2013-02-14 00:03:00,30.6,29.0,29.91,South,187,0.0,2.0,92,0.00,,,0.11,weatherlink.com 1.10,2013-02-14 05:03:00,
2013-02-14 00:18:00,31.0,29.0,29.91,SE,127,0.0,1.0,91,0.00,,,0.00,weatherlink.com 1.10,2013-02-14 05:18:00,
2013-02-14 00:33:00,31.4,29.0,29.92,SE,128,0.0,3.0,91,0.00,,,0.00,weatherlink.com 1.10,2013-02-14 05:33:00,
2013-02-14 00:48:00,31.4,29.0,29.92,ESE,123,0.0,3.0,90,0.00,,,0.00,weatherlink.com 1.10,2013-02-14 05:48:00,
2013-02-14 01:04:00,31.3,29.0,29.92,East,98,0.0,3.0,89,0.00,,,0.00,weatherlink.com 1.10,2013-02-14 06:04:00,
2013-02-14 01:19:00,31.3,29.0,29.93,SE,124,0.0,2.0,89,0.00,,,0.00,weatherlink.com 1.10,2013-02-14 06:19:00,
2013-02-14 01:34:00,30.9,28.0,29.93,ESE,109,0.0,3.0,89,0.00,,,0.00,weatherlink.com 1.10,2013-02-14 06:34:00,
2013-02-14 01:49:00,31.1,28.0,29.92,ESE,111,0.0,5.0,89,0.00,,,0.00,weatherlink.com 1.10,2013-02-14 06:49:00,
2013-02-14 02:04:00,31.2,28.0,29.92,SE,132,0.0,2.0,89,0.00,,,0.00,weatherlink.com 1.10,2013-02-14 07:04:00,
2013-02-14 02:19:00,31.3,29.0,29.92,SSE,148,0.0,4.0,89,0.00,,,0.00,weatherlink.com 1.10,2013-02-14 07:19:00,
2013-02-14 02:34:00,31.4,29.0,29.92,South,172,0.0,2.0,89,0.00,,,0.00,weatherlink.com 1.10,2013-02-14 07:34:00,
2013-02-14 02:49:00,31.3,29.0,29.93,South,171,0.0,1.0,89,0.00,,,0.00,weatherlink.com 1.10,2013-02-14 07:49:00,
2013-02-14 03:04:00,30.8,28.0,29.93,South,170,0.0,1.0,89,0.00,,,0.00,weatherlink.com 1.10,2013-02-14 08:04:00,
2013-02-14 03:19:00,30.7,28.0,29.93,South,170,0.0,0.0,90,0.00,,,0.00,weatherlink.com 1.10,2013-02-14 08:19:00,
2013-02-14 03:34:00,30.4,28.0,29.92,South,170,0.0,0.0,90,0.00,,,0.00,weatherlink.com 1.10,2013-02-14 08:34:00,
2013-02-14 03:49:00,30.6,28.0,29.92,South,170,0.0,1.0,91,0.00,,,0.00,weatherlink.com 1.10,2013-02-14 08:49:00,
2013-02-14 04:04:00,31.2,29.0,29.92,South,170,0.0,2.0,91,0.00,,,0.00,weatherlink.com 1.10,2013-02-14 09:04:00,
2013-02-14 04:19:00,31.2,29.0,29.91,South,170,1.0,2.0,91,0.00,,,0.00,weatherlink.com 1.10,2013-02-14 09:19:00,
2013-02-14 04:34:00,31.2,29.0,29.91,South,170,0.0,1.0,90,0.00,,,0.00,weatherlink.com 1.10,2013-02-14 09:34:00,
2013-02-14 04:49:00,30.8,28.0,29.91,South,170,0.0,0.0,90,0.00,,,0.00,weatherlink.com 1.10,2013-02-14 09:49:00,
2013-02-14 05:04:00,30.6,28.0,29.92,South,170,0.0,0.0,90,0.00,,,0.00,weatherlink.com 1.10,2013-02-14 10:04:00,
2013-02-14 05:19:00,31.2,29.0,29.92,SSE,167,0.0,1.0,91,0.00,,,0.00,weatherlink.com 1.10,2013-02-14 10:19:00,
2013-02-14 05:34:00,31.7,29.0,29.92,East,99,0.0,2.0,91,0.00,,,0.00,weatherlink.com 1.10,2013-02-14 10:34:00,
2013-02-14 05:49:00,32.1,30.0,29.92,ESE,110,0.0,3.0,91,0.00,,,0.00,weatherlink.com 1.10,2013-02-14 10:49:00,
2013-02-14 06:04:00,32.3,30.0,29.91,SSE,155,0.0,3.0,91,0.00,,,0.00,weatherlink.com 1.10,2013-02-14 11:04:00,
2013-02-14 06:19:00,32.7,30.0,29.91,SSE,159,1.0,3.0,91,0.00,,,0.00,weatherlink.com 1.10,2013-02-14 11:19:00,
2013-02-14 06:34:00,33.0,31.0,29.91,SSE,150,1.0,2.0,91,0.00,,,0.00,weatherlink.com 1.10,2013-02-14 11:34:00,
2013-02-14 06:49:00,33.4,31.0,29.91,South,171,0.0,3.0,90,0.00,,,0.00,weatherlink.com 1.10,2013-02-14 11:49:00,
2013-02-14 07:04:00,34.2,32.0,29.91,SSE,155,0.0,5.0,90,0.00,,,0.00,weatherlink.com 1.10,2013-02-14 12:04:00,
2013-02-14 07:19:00,34.7,32.0,29.92,SSW,193,2.0,8.0,90,0.00,,,0.00,weatherlink.com 1.10,2013-02-14 12:19:00,
2013-02-14 07:34:00,35.0,32.0,29.93,South,182,0.0,8.0,90,0.00,,,0.00,weatherlink.com 1.10,2013-02-14 12:34:00,
2013-02-14 07:49:00,35.1,32.0,29.93,South,178,1.0,8.0,89,0.00,,,0.00,weatherlink.com 1.10,2013-02-14 12:49:00,
2013-02-14 08:04:00,35.2,32.0,29.93,SW,223,7.0,10.0,89,0.00,,,0.00,weatherlink.com 1.10,2013-02-14 13:04:00,
2013-02-14 08:19:00,35.3,32.0,29.93,SSW,202,3.0,4.0,89,0.00,,,0.00,weatherlink.com 1.10,2013-02-14 13:19:00,
2013-02-14 08:34:00,35.5,33.0,29.93,SW,220,5.0,7.0,89,0.00,,,0.00,weatherlink.com 1.10,2013-02-14 13:34:00,
2013-02-14 08:49:00,35.6,33.0,29.93,South,184,6.0,9.0,89,0.00,,,0.00,weatherlink.com 1.10,2013-02-14 13:49:00,
2013-02-14 09:04:00,35.8,33.0,29.93,South,177,0.0,8.0,89,0.00,,,0.00,weatherlink.com 1.10,2013-02-14 14:04:00,
2013-02-14 09:19:00,35.9,33.0,29.93,SSW,205,7.0,13.0,88,0.00,,,0.00,weatherlink.com 1.10,2013-02-14 14:19:00,
2013-02-14 09:34:00,36.1,33.0,29.93,South,189,5.0,14.0,87,0.00,,,0.00,weatherlink.com 1.10,2013-02-14 14:34:00,
2013-02-14 09:49:00,36.3,33.0,29.93,South,184,8.0,9.0,87,0.00,,,0.00,weatherlink.com 1.10,2013-02-14 14:49:00,
2013-02-14 10:04:00,36.6,33.0,29.93,SSW,194,6.0,14.0,87,0.00,,,0.00,weatherlink.com 1.10,2013-02-14 15:04:00,
2013-02-14 10:19:00,37.0,33.0,29.92,SE,132,1.0,9.0,86,0.00,,,0.00,weatherlink.com 1.10,2013-02-14 15:19:00,
2013-02-14 10:34:00,37.5,34.0,29.92,South,170,2.0,10.0,86,0.00,,,0.00,weatherlink.com 1.10,2013-02-14 15:34:00,
2013-02-14 10:49:00,38.0,34.0,29.92,SSW,194,7.0,11.0,85,0.00,,,0.00,weatherlink.com 1.10,2013-02-14 15:49:00,
2013-02-14 11:19:00,38.9,34.0,29.91,South,182,4.0,11.0,82,0.00,,,0.00,weatherlink.com 1.10,2013-02-14 16:19:00,
2013-02-14 11:36:00,40.0,35.0,29.90,SE,125,1.0,8.0,82,0.00,,,0.00,weatherlink.com 1.10,2013-02-14 16:36:00,
2013-02-14 11:50:00,41.2,36.0,29.89,South,191,0.0,8.0,80,0.00,,,0.00,weatherlink.com 1.10,2013-02-14 16:50:00,
2013-02-14 12:05:00,42.7,36.0,29.89,SSW,198,6.0,11.0,77,0.00,,,0.00,weatherlink.com 1.10,2013-02-14 17:05:00,
2013-02-14 12:20:00,43.7,37.0,29.88,South,173,3.0,9.0,77,0.00,,,0.00,weatherlink.com 1.10,2013-02-14 17:20:00,
2013-02-14 12:35:00,44.6,37.0,29.88,South,188,2.0,8.0,75,0.00,,,0.00,weatherlink.com 1.10,2013-02-14 17:35:00,
2013-02-14 12:50:00,45.4,37.0,29.87,SSW,208,2.0,11.0,73,0.00,,,0.00,weatherlink.com 1.10,2013-02-14 17:50:00,
2013-02-14 13:05:00,46.5,37.0,29.85,SSE,158,6.0,14.0,70,0.00,,,0.00,weatherlink.com 1.10,2013-02-14 18:05:00,
2013-02-14 13:20:00,46.5,37.0,29.85,SSE,168,5.0,11.0,70,0.00,,,0.00,weatherlink.com 1.10,2013-02-14 18:20:00,
2013-02-14 13:35:00,47.6,37.0,29.84,South,190,7.0,11.0,68,0.00,,,0.00,weatherlink.com 1.10,2013-02-14 18:35:00,
2013-02-14 14:05:00,49.2,37.0,29.78,SSE,168,12.0,19.0,63,0.00,,,0.00,weatherlink.com 1.10,2013-02-14 19:05:00,
2013-02-14 14:20:00,50.4,37.0,29.77,South,188,8.0,17.0,60,0.00,,,0.00,weatherlink.com 1.10,2013-02-14 19:20:00,
2013-02-14 14:35:00,50.8,37.0,29.77,SE,140,5.0,14.0,60,0.00,,,0.00,weatherlink.com 1.10,2013-02-14 19:35:00,
2013-02-14 14:50:00,51.2,37.0,29.79,SSW,192,5.0,14.0,59,0.00,,,0.00,weatherlink.com 1.10,2013-02-14 19:50:00,
2013-02-14 15:05:00,51.9,37.0,29.78,SSW,198,6.0,17.0,57,0.00,,,0.00,weatherlink.com 1.10,2013-02-14 20:05:00,
2013-02-14 15:20:00,52.6,37.0,29.81,SSW,208,4.0,16.0,56,0.00,,,0.00,weatherlink.com 1.10,2013-02-14 20:20:00,
2013-02-14 15:35:00,52.9,36.0,29.83,SSE,166,4.0,14.0,54,0.00,,,0.00,weatherlink.com 1.10,2013-02-14 20:35:00,
2013-02-14 15:50:00,53.7,36.0,29.83,SSE,159,8.0,16.0,52,0.00,,,0.00,weatherlink.com 1.10,2013-02-14 20:50:00,
2013-02-14 16:05:00,53.6,36.0,29.84,SSW,196,8.0,17.0,52,0.00,,,0.00,weatherlink.com 1.10,2013-02-14 21:05:00,
2013-02-14 16:21:00,53.6,35.0,29.84,SSE,157,4.0,12.0,50,0.00,,,0.00,weatherlink.com 1.10,2013-02-14 21:21:00,
2013-02-14 16:36:00,54.0,35.0,29.85,SSW,192,5.0,15.0,49,0.00,,,0.00,weatherlink.com 1.10,2013-02-14 21:36:00,
2013-02-14 16:51:00,53.6,35.0,29.84,SSW,192,5.0,14.0,50,0.00,,,0.00,weatherlink.com 1.10,2013-02-14 21:51:00,
2013-02-14 17:06:00,53.3,35.0,29.85,South,172,6.0,11.0,51,0.00,,,0.00,weatherlink.com 1.10,2013-02-14 22:06:00,
2013-02-14 17:21:00,52.9,35.0,29.86,South,184,4.0,8.0,52,0.00,,,0.00,weatherlink.com 1.10,2013-02-14 22:21:00,
2013-02-14 17:36:00,53.1,35.0,29.87,South,187,5.0,10.0,51,0.00,,,0.00,weatherlink.com 1.10,2013-02-14 22:36:00,
2013-02-14 17:51:00,53.0,35.0,29.88,South,178,3.0,9.0,50,0.00,,,0.00,weatherlink.com 1.10,2013-02-14 22:51:00,
2013-02-14 18:06:00,52.3,33.0,29.88,WSW,246,7.0,15.0,49,0.00,,,0.00,weatherlink.com 1.10,2013-02-14 23:06:00,
2013-02-14 18:21:00,51.6,34.0,29.89,SW,223,0.0,10.0,51,0.00,,,0.00,weatherlink.com 1.10,2013-02-14 23:21:00,
2013-02-14 18:36:00,51.1,34.0,29.90,South,177,4.0,11.0,52,0.00,,,0.00,weatherlink.com 1.10,2013-02-14 23:36:00,
2013-02-14 18:51:00,50.3,34.0,29.91,South,179,3.0,7.0,54,0.00,,,0.00,weatherlink.com 1.10,2013-02-14 23:51:00,
2013-02-14 19:06:00,49.9,35.0,29.91,South,185,1.0,7.0,56,0.00,,,0.00,weatherlink.com 1.10,2013-02-15 00:06:00,
2013-02-14 19:21:00,49.3,34.0,29.92,South,184,2.0,4.0,57,0.00,,,0.00,weatherlink.com 1.10,2013-02-15 00:21:00,
2013-02-14 19:36:00,48.9,34.0,29.92,South,181,3.0,5.0,58,0.00,,,0.00,weatherlink.com 1.10,2013-02-15 00:36:00,
2013-02-14 19:51:00,48.7,34.0,29.93,South,177,0.0,4.0,58,0.00,,,0.00,weatherlink.com 1.10,2013-02-15 00:51:00,
2013-02-14 20:06:00,48.4,34.0,29.93,SSW,192,0.0,4.0,59,0.00,,,0.00,weatherlink.com 1.10,2013-02-15 01:06:00,
2013-02-14 20:21:00,47.9,34.0,29.93,South,182,1.0,4.0,60,0.00,,,0.00,weatherlink.com 1.10,2013-02-15 01:21:00,
2013-02-14 20:36:00,47.6,34.0,29.94,South,175,0.0,3.0,60,0.00,,,0.00,weatherlink.com 1.10,2013-02-15 01:36:00,
2013-02-14 20:51:00,47.1,34.0,29.93,South,177,3.0,3.0,61,0.00,,,0.00,weatherlink.com 1.10,2013-02-15 01:51:00,
2013-02-14 21:06:00,46.8,34.0,29.94,SSW,196,0.0,4.0,61,0.00,,,0.00,weatherlink.com 1.10,2013-02-15 02:06:00,
2013-02-14 21:21:00,46.8,34.0,29.96,West,259,5.0,7.0,62,0.00,,,0.00,weatherlink.com 1.10,2013-02-15 02:21:00,
2013-02-14 21:36:00,46.4,34.0,29.97,West,276,2.0,10.0,62,0.00,,,0.00,weatherlink.com 1.10,2013-02-15 02:36:00,
2013-02-14 21:51:00,45.5,33.0,29.98,NNW,332,4.0,8.0,63,0.00,,,0.00,weatherlink.com 1.10,2013-02-15 02:51:00,
2013-02-14 22:06:00,44.5,32.0,29.98,WSW,248,2.0,9.0,63,0.00,,,0.00,weatherlink.com 1.10,2013-02-15 03:06:00,
2013-02-14 22:21:00,43.9,33.0,29.98,NW,311,7.0,11.0,65,0.00,,,0.00,weatherlink.com 1.10,2013-02-15 03:21:00,
2013-02-14 22:36:00,43.5,32.0,29.99,WNW,294,5.0,12.0,65,0.00,,,0.00,weatherlink.com 1.10,2013-02-15 03:36:00,
2013-02-14 22:51:00,43.0,32.0,30.00,SSW,196,2.0,8.0,66,0.00,,,0.00,weatherlink.com 1.10,2013-02-15 03:51:00,
2013-02-14 23:06:00,42.4,32.0,30.00,West,266,5.0,11.0,67,0.00,,,0.00,weatherlink.com 1.10,2013-02-15 04:06:00,
2013-02-14 23:21:00,41.7,32.0,30.00,NW,317,4.0,9.0,68,0.00,,,0.00,weatherlink.com 1.10,2013-02-15 04:21:00,
2013-02-14 23:36:00,41.4,32.0,30.01,West,278,0.0,5.0,68,0.00,,,0.00,weatherlink.com 1.10,2013-02-15 04:36:00,
2013-02-14 23:51:00,41.2,31.0,30.01,West,273,1.0,6.0,67,0.00,,,0.00,weatherlink.com 1.10,2013-02-15 04:51:00,